Theta_e
330 329 326 322 319 319 320 317 314 313 310 308 309 308 306 307 309 308 309 311 316 318 320 320 319 317 316 315 314 313 312 311 310 310 310 310 310 311 311 311 311 312 312
334 327 327 325 321 318 319 315 309 305 302 303 302 300 299 300 302 303 305 308 312 313 314 315 315 315 315 314 312 312 311 310 309 308 308 308 308 309 309 309 309 310 310
335 330 326 324 319 318 316 310 305 300 298 298 298 296 296 296 295 296 298 303 304 306 308 310 311 312 312 311 311 310 309 308 308 307 306 307 307 307 307 307 307 308 308
333 330 322 320 316 312 312 307 304 297 296 296 296 295 294 294 294 294 294 296 298 299 302 305 307 308 308 309 309 308 308 307 306 305 305 305 305 305 306 306 306 306 306
327 325 321 318 317 312 313 307 300 296 293 294 294 294 293 293 292 292 292 292 292 294 296 299 300 302 304 306 307 307 306 305 304 304 304 303 304 304 304 304 305 305 305
324 323 318 315 314 310 307 304 297 294 293 293 291 291 291 292 292 292 291 290 291 291 291 292 294 297 299 302 304 305 305 304 303 302 302 302 302 303 303 303 303 303 303
319 318 314 311 311 308 305 302 294 292 292 293 291 289 289 290 290 290 291 290 290 289 290 290 291 291 293 297 300 302 303 303 302 301 301 301 301 302 302 302 302 302 303
315 315 312 310 310 308 303 299 294 292 293 294 294 291 287 288 288 289 290 289 289 289 288 288 288 289 291 292 294 297 299 301 301 300 299 299 300 300 301 301 301 302 302
309 311 310 307 307 304 300 298 297 298 293 294 296 299 292 292 287 287 287 288 288 288 288 287 287 287 288 290 291 292 294 296 297 297 298 298 298 299 300 300 301 301 301
303 305 303 302 301 303 301 300 300 301 297 294 295 295 295 297 292 284 286 287 287 287 288 286 286 286 287 288 288 288 290 292 293 294 295 296 297 298 299 299 300 300 300
298 300 300 298 300 302 304 305 302 302 300 299 297 292 291 291 294 289 284 283 286 287 288 287 287 286 286 287 288 287 288 290 291 292 292 293 294 296 297 298 298 299 299
295 294 294 296 300 302 304 305 302 299 300 300 298 294 291 290 288 288 286 285 285 285 286 286 286 287 287 286 284 285 285 287 289 291 291 291 292 294 295 296 297 297 297
295 296 291 292 295 298 302 302 300 299 299 297 296 292 291 290 289 288 287 284 283 284 285 287 287 286 285 286 285 283 283 285 287 289 289 290 291 292 293 294 294 295 295
303 299 292 290 291 294 298 298 298 296 295 294 292 290 289 288 289 287 286 284 281 283 284 285 286 286 286 285 283 282 285 283 285 287 288 288 290 290 291 292 292 292 293
299 291 289 288 289 290 294 294 293 290 291 290 290 289 288 286 286 286 286 287 286 282 281 283 283 285 285 284 283 284 284 283 285 286 286 287 288 289 290 290 290 291 292
291 287 286 286 287 288 291 291 290 289 289 288 287 286 286 285 285 285 284 284 285 285 283 283 283 284 284 282 283 283 284 282 284 284 284 285 287 288 288 288 289 289 290
286 286 285 285 285 286 288 289 288 287 287 285 286 285 284 284 282 282 283 283 283 284 283 282 282 283 282 282 283 284 284 283 284 284 283 284 286 286 286 286 287 287 287
287 285 284 284 284 284 287 287 286 286 286 284 284 283 282 281 281 281 282 281 282 282 282 280 281 280 281 283 283 282 281 282 283 283 283 284 285 284 284 285 285 285 285
286 283 283 283 282 283 284 286 286 285 285 284 283 283 282 281 280 280 280 281 281 279 280 279 279 280 281 282 281 282 282 283 282 283 283 283 282 282 283 283 283 283 282
285 283 283 282 282 282 282 284 284 284 284 284 283 283 281 280 280 280 280 280 280 279 279 278 278 279 280 281 280 279 280 283 282 282 282 281 280 282 282 282 281 280 280
284 283 282 282 282 281 281 281 283 283 283 282 282 281 281 281 282 282 280 281 280 279 279 278 278 279 279 279 278 280 279 280 281 282 280 280 280 280 280 280 279 279 281
283 282 281 281 280 280 284 285 284 283 282 281 280 280 281 280 281 283 283 282 281 280 280 280 279 278 278 279 279 279 278 277 276 283 279 278 280 278 279 279 279 280 280
282 281 281 281 280 280 285 285 285 282 282 281 280 280 279 279 280 280 283 284 283 283 283 280 278 278 279 280 281 279 278 278 277 280 278 275 279 277 278 277 279 280 279
281 281 280 280 281 280 286 286 284 282 282 281 280 282 281 279 279 279 279 280 281 282 283 283 282 281 282 283 281 280 279 279 279 278 277 272 276 275 277 277 278 278 278
281 282 281 280 280 280 286 286 283 281 280 279 281 282 281 280 280 282 279 279 279 279 281 283 284 284 284 284 283 282 280 277 275 277 278 273 274 273 274 274 276 277 277
281 280 280 281 281 281 286 286 284 281 280 280 281 282 281 281 282 283 281 281 278 279 279 279 279 280 281 281 282 281 280 276 276 275 276 271 273 272 269 274 273 273 273
Wind_Speed
7 8 6 7 6 6 7 10 9 9 10 10 10 12 12 11 11 8 8 14 16 19 20 21 22 22 21 21 21 22 22 23 23 23 24 24 24 24 25 25 25 26 27
9 8 8 8 8 5 7 7 10 7 8 8 11 11 11 10 10 10 9 10 18 20 20 21 21 20 20 20 20 21 21 22 22 22 22 23 23 24 25 25 26 26 27
13 13 7 9 8 6 11 10 12 9 8 7 11 10 9 10 9 9 7 7 12 19 19 19 19 20 19 19 20 20 20 21 21 21 22 23 23 24 24 25 25 26 26
14 13 8 8 8 6 8 8 11 9 7 7 9 8 8 8 9 9 8 6 7 8 14 18 19 18 18 18 19 19 20 20 21 20 21 23 23 23 24 25 26 26 27
12 10 9 9 12 8 9 10 9 9 8 7 9 8 7 7 8 8 9 9 8 7 7 16 18 16 16 16 18 18 19 19 19 20 21 22 22 23 24 25 26 26 27
12 11 8 11 11 9 7 9 11 9 7 11 10 8 7 6 6 6 7 6 7 8 7 7 7 9 15 17 18 17 17 18 19 20 21 21 22 23 23 23 24 26 26
11 12 9 11 10 11 12 12 11 15 8 12 10 8 6 6 6 5 4 5 6 6 7 6 4 4 6 15 16 16 17 18 19 20 20 20 20 21 22 23 23 24 26
9 11 13 12 13 10 12 14 14 10 7 12 7 7 5 3 3 3 3 4 5 5 6 7 7 7 6 5 10 16 17 17 18 18 17 18 19 19 19 20 22 24 25
8 10 12 11 13 11 12 14 14 15 11 11 13 3 5 5 8 4 5 4 5 4 5 6 7 6 5 5 6 10 15 15 15 16 16 18 18 18 19 21 22 23 24
7 8 10 12 12 9 11 13 12 12 13 12 6 5 4 7 6 6 5 5 4 5 5 4 4 4 4 4 6 11 12 13 14 15 16 17 17 19 20 22 22 24 25
5 8 10 11 11 8 11 14 14 13 10 10 8 5 4 3 3 4 6 7 5 5 4 4 3 3 3 4 4 6 12 12 13 15 15 17 18 19 20 22 23 25 26
5 7 7 10 11 9 12 12 13 13 11 9 8 6 5 5 6 4 4 9 7 6 5 4 4 3 1 2 2 5 9 11 12 14 15 16 17 18 20 22 23 24 25
7 11 9 9 9 10 12 12 13 12 12 9 9 6 4 3 3 4 6 5 4 4 5 5 4 4 2 1 2 5 5 10 12 13 14 15 17 18 20 21 22 24 26
11 13 10 10 9 10 13 12 9 8 8 7 9 6 4 4 4 3 4 6 3 3 5 4 5 5 4 3 3 5 5 6 11 12 14 15 17 18 20 21 22 25 27
9 10 9 9 9 9 13 13 8 8 8 7 7 7 6 5 4 4 5 2 2 4 7 6 5 6 4 4 2 5 5 7 12 12 13 16 17 18 20 20 22 25 27
11 10 9 8 9 9 12 12 9 9 10 8 7 10 8 6 6 5 4 3 0 2 3 3 4 4 4 5 3 6 6 10 10 11 13 16 17 19 19 19 23 26 27
11 12 12 11 11 11 14 12 12 13 13 12 10 10 9 8 6 5 3 3 2 2 3 3 2 3 5 5 4 5 6 7 7 12 13 15 17 19 17 20 24 26 27
12 12 12 11 11 12 14 14 15 13 14 14 13 12 11 6 7 6 4 5 4 4 2 4 2 3 5 5 6 7 6 6 9 11 14 17 18 17 17 22 25 26 26
12 12 13 14 13 13 13 14 14 14 14 13 14 13 13 10 7 6 6 6 5 3 3 3 2 2 3 4 6 7 8 9 8 13 15 17 15 15 20 22 24 25 24
13 13 14 15 14 13 11 11 12 13 13 12 12 11 11 9 9 8 7 7 5 5 5 4 5 5 5 4 5 7 8 7 9 8 12 10 12 17 19 21 21 21 22
12 12 12 11 11 11 9 12 12 12 13 12 10 9 8 8 10 9 7 8 8 7 5 6 6 6 7 7 8 6 8 10 10 10 7 7 9 10 10 15 16 20 25
12 11 13 13 13 9 19 22 16 12 11 12 11 8 6 7 10 14 14 10 10 8 8 6 7 9 10 8 7 8 9 9 10 5 7 11 9 10 10 10 19 24 27
13 14 13 13 13 12 23 23 19 10 11 11 11 9 6 5 8 8 13 16 15 16 16 7 10 10 10 9 10 11 11 11 11 9 10 14 9 12 10 11 21 26 24
13 14 14 13 12 10 23 22 19 11 9 11 10 9 9 8 9 9 8 9 9 10 12 10 12 11 12 10 10 10 12 13 10 8 9 11 9 12 12 11 23 20 20
10 11 11 12 12 10 23 22 17 10 9 10 8 8 8 9 12 16 9 9 10 10 11 19 21 22 22 22 18 9 10 8 10 9 4 8 9 10 12 12 9 19 24
9 8 8 9 10 11 22 22 16 7 8 7 7 8 14 12 15 18 11 9 11 11 8 8 9 12 14 12 17 12 8 10 10 9 2 5 9 8 8 10 10 11 11
Wind_Direction
158 152 146 145 136 136 133 123 119 109 99 96 96 95 93 94 93 91 75 50 71 76 74 71 69 69 66 63 61 58 55 51 46 42 40 36 34 30 28 26 22 19 15
171 160 161 155 143 139 131 123 115 106 101 103 96 92 93 95 97 97 89 68 67 74 75 74 73 73 71 67 64 60 55 53 49 45 41 37 34 29 27 25 21 17 14
182 169 158 155 147 139 127 124 111 106 103 106 102 98 96 94 95 99 101 89 80 66 72 77 74 71 70 68 65 61 57 53 49 44 39 36 32 28 24 22 19 15 12
179 171 153 152 137 143 147 133 130 118 117 120 116 108 102 97 93 89 90 90 84 85 71 72 73 70 68 65 63 61 56 51 46 42 38 36 31 26 22 20 16 14 11
164 156 153 152 151 144 160 146 127 124 128 122 116 110 103 100 96 93 90 86 90 94 91 74 68 65 66 64 61 57 53 50 44 39 37 35 30 25 21 18 14 11 7
159 152 152 152 149 142 149 149 133 124 134 129 119 108 100 97 96 94 94 94 94 92 88 88 83 65 58 58 53 51 50 47 43 39 35 31 27 23 18 15 11 8 3
160 155 153 153 155 160 153 157 136 132 136 137 126 107 93 90 96 102 117 116 107 96 93 88 85 76 64 52 45 42 43 41 39 36 31 26 22 19 14 10 7 2 360
166 163 158 163 161 157 151 156 155 142 148 174 153 135 155 145 121 123 134 137 131 119 103 89 83 70 60 59 42 37 35 34 32 29 24 20 18 13 8 4 2 360 357
164 170 167 159 164 164 163 168 167 162 161 187 191 158 164 183 148 167 175 172 167 146 124 102 78 70 63 60 40 34 27 25 22 19 16 14 8 3 1 357 357 355 353
161 174 163 161 162 165 170 178 178 171 165 176 191 234 274 131 184 167 194 188 188 175 153 118 103 81 62 61 56 35 19 15 11 10 8 3 359 356 353 352 352 350 349
158 169 167 162 165 178 182 182 179 182 184 178 195 161 182 174 185 150 164 177 196 193 170 155 153 118 74 45 37 35 11 3 2 3 358 353 351 349 347 346 347 348 344
174 178 165 173 176 181 185 185 183 184 185 189 191 187 182 186 177 161 135 164 182 177 178 186 190 179 91 44 53 2 358 356 355 353 351 346 341 341 342 342 344 340 338
191 189 174 174 177 178 188 184 184 185 189 191 187 184 183 173 135 125 131 140 156 155 187 204 201 201 202 297 5 350 339 347 346 342 342 335 333 336 339 338 336 335 335
195 184 181 177 179 170 180 180 182 182 177 185 174 171 151 126 131 137 139 144 132 172 184 177 193 210 212 254 337 300 316 331 331 329 329 328 328 332 335 331 330 332 330
185 173 172 171 170 172 175 168 170 161 164 156 147 142 131 117 104 103 109 91 141 183 205 184 194 199 210 238 267 295 311 325 317 313 320 323 325 327 327 325 326 328 322
172 159 162 167 168 172 168 163 157 155 151 144 148 147 136 123 106 90 76 80 72 230 195 188 193 179 206 241 253 274 300 307 303 304 307 317 317 319 321 320 322 319 318
162 166 165 169 171 167 168 160 159 159 157 152 151 146 135 133 119 105 127 135 160 216 219 149 220 201 245 257 268 281 298 302 298 294 301 306 305 309 313 315 315 314 314
171 169 165 168 167 167 168 169 159 167 162 161 157 150 146 138 131 138 161 172 190 199 197 221 202 236 252 287 291 292 291 288 285 290 292 298 298 298 307 308 310 311 309
173 166 166 171 171 175 173 171 166 163 166 164 162 159 155 151 149 160 184 181 185 185 207 226 243 234 277 280 287 279 279 279 278 280 289 290 287 297 301 304 304 305 310
174 177 180 179 175 173 171 166 169 165 163 164 163 159 156 162 166 174 186 186 182 190 206 226 243 259 264 285 286 287 288 280 293 292 282 277 285 294 298 302 302 303 304
181 183 178 180 174 175 170 161 163 165 160 158 159 158 160 172 178 191 180 190 189 200 210 227 245 255 262 266 266 286 288 293 292 283 286 283 292 300 298 302 299 303 310
178 176 182 180 177 180 177 171 163 165 159 157 162 163 179 169 206 212 212 206 202 196 213 222 243 247 260 263 269 276 283 291 299 254 292 287 293 297 301 300 306 306 313
176 183 183 180 181 177 178 174 164 160 164 160 156 171 167 182 203 215 224 228 227 229 235 231 246 247 264 264 273 275 273 274 278 285 298 287 307 292 302 302 308 311 314
182 183 184 184 176 174 177 173 162 154 166 164 158 175 171 189 201 199 211 231 233 233 236 232 237 248 256 267 267 273 278 278 279 269 258 273 298 301 301 307 308 308 315
180 185 181 177 173 166 171 171 166 157 166 175 166 182 180 209 207 208 214 230 238 242 246 250 254 262 268 270 265 266 261 250 270 274 216 264 293 299 302 301 311 318 321
172 164 163 172 161 157 177 176 171 162 167 181 181 198 203 204 218 219 218 218 243 244 234 238 252 264 268 269 271 264 265 262 271 282 277 266 282 316 296 305 317 308 317